Location: Killam
(52.7910°N, 111.8608°W)
Time: 11:04:10
(UTC+00:00)

LilacSat-2 - Visible Passes

Search period start: 15 March 2026 00:00
Search period end: 25 March 2026 00:00
Orbit: 418 x 426 km, 97.5° (Epoch: 15 March)

Date Brightness Start Highest point End Pass type
(mag) Time Alt. Az. Time Alt. Az. Time Alt. Az.
15 Mar ? 01:56:55 10° SE 02:00:02 42° ENE 02:03:09 10° N visible
15 Mar ? 03:30:19 10° SW 03:32:25 16° W 03:34:33 10° NW visible
16 Mar ? 02:45:27 10° S 02:48:37 48° W 02:51:49 10° NNW visible
17 Mar ? 02:01:53 10° SE 02:05:02 47° ENE 02:08:12 10° N visible
17 Mar ? 03:35:37 10° SW 03:37:29 14° W 03:39:21 10° NW visible
18 Mar ? 02:50:27 10° S 02:53:34 42° W 02:56:43 10° NNW visible
19 Mar ? 02:06:41 10° SSE 02:09:53 54° ENE 02:13:04 10° N visible
19 Mar ? 03:40:48 10° WSW 03:42:22 13° W 03:43:57 10° WNW visible
20 Mar ? 02:55:18 10° SSW 02:58:21 37° W 03:01:26 10° NNW visible
21 Mar ? 03:45:55 10° WSW 03:47:06 12° W 03:48:19 10° WNW visible
22 Mar ? 03:00:00 10° SSW 03:02:59 33° W 03:06:00 10° NNW visible
23 Mar ? 02:15:52 10° SSE 02:19:05 69° ENE 02:22:20 10° N visible
23 Mar ? 03:51:05 10° W 03:51:41 10° W 03:52:18 10° WNW visible
24 Mar ? 03:04:32 10° SSW 03:07:27 30° W 03:10:23 10° NNW visible
